• In Italy
  • List of Countries
  • For 7 days
  • Water Temperature
  • Satellite Maps
  • Weather Map
  • Weather Widgets
  • user-avatar
    Login

    Hourly Weather Yulara

    Today, 28 July, Friday

    Time Temperature Precipitation Wind Pressure Humidity
    00:00 +18°C° 0 mm 2 mps 721 mmHg 24%
    01:00 +18°C° 0 mm 2 mps 721 mmHg 24%
    02:00 +17°C° 0 mm 2 mps 721 mmHg 24%
    03:00 +17°C° 0 mm 3 mps 721 mmHg 24%
    04:00 +16°C° 0 mm 3 mps 721 mmHg 25%
    05:00 +16°C° 0 mm 3 mps 721 mmHg 25%
    06:00 +15°C° 0 mm 2 mps 721 mmHg 26%
    07:00 +17°C° 0 mm 2 mps 721 mmHg 24%
    08:00 +18°C° 0 mm 2 mps 722 mmHg 22%
    09:00 +20°C° 0 mm 2 mps 722 mmHg 20%
    10:00 +22°C° 0 mm 3 mps 722 mmHg 18%
    11:00 +25°C° 0 mm 4 mps 722 mmHg 16%
    12:00 +27°C° 0 mm 5 mps 722 mmHg 15%
    13:00 +28°C° 0 mm 5 mps 721 mmHg 14%
    14:00 +28°C° 0 mm 5 mps 720 mmHg 13%
    15:00 +29°C° 0 mm 5 mps 720 mmHg 13%
    16:00 +27°C° 0 mm 4 mps 720 mmHg 15%
    17:00 +26°C° 0 mm 4 mps 719 mmHg 16%
    18:00 +24°C° 0 mm 3 mps 719 mmHg 18%
    19:00 +22°C° 0 mm 3 mps 719 mmHg 19%
    20:00 +21°C° 0 mm 3 mps 720 mmHg 20%
    21:00 +21°C° 0 mm 3 mps 720 mmHg 21%
    22:00 +20°C° 0 mm 3 mps 720 mmHg 22%
    23:00 +20°C° 0 mm 3 mps 720 mmHg 22%

    Tomorrow, 29 July, Saturday

    Time Temperature Precipitation Wind Pressure Humidity
    00:00 +19°C° 0 mm 3 mps 720 mmHg 23%
    01:00 +19°C° 0 mm 3 mps 719 mmHg 24%
    02:00 +18°C° 0 mm 3 mps 719 mmHg 24%
    03:00 +18°C° 0 mm 3 mps 719 mmHg 25%
    04:00 +17°C° 0 mm 4 mps 719 mmHg 26%
    05:00 +17°C° 0 mm 4 mps 719 mmHg 27%
    06:00 +17°C° 0 mm 4 mps 719 mmHg 27%
    07:00 +17°C° 0 mm 5 mps 719 mmHg 26%
    08:00 +19°C° 0 mm 6 mps 719 mmHg 24%
    09:00 +21°C° 0 mm 7 mps 720 mmHg 23%
    10:00 +23°C° 0 mm 7 mps 719 mmHg 21%
    11:00 +26°C° 0 mm 8 mps 719 mmHg 18%
    12:00 +29°C° 0 mm 8 mps 719 mmHg 16%
    13:00 +29°C° 0 mm 8 mps 718 mmHg 16%
    14:00 +31°C° 0 mm 8 mps 717 mmHg 15%
    15:00 +32°C° 0 mm 8 mps 717 mmHg 15%
    16:00 +29°C° 0 mm 6 mps 717 mmHg 17%
    17:00 +28°C° 0 mm 5 mps 717 mmHg 19%
    18:00 +26°C° 0 mm 4 mps 717 mmHg 21%
    19:00 +25°C° 0 mm 4 mps 717 mmHg 25%
    20:00 +23°C° 0 mm 4 mps 717 mmHg 28%
    21:00 +21°C° 0 mm 4 mps 718 mmHg 32%
    22:00 +21°C° 0 mm 4 mps 718 mmHg 37%
    23:00 +20°C° 0 mm 4 mps 718 mmHg 42%

    Day after tomorrow, 30 July, Sunday

    Time Temperature Precipitation Wind Pressure Humidity
    00:00 +19°C° 0 mm 4 mps 718 mmHg 48%
    01:00 +19°C° 0 mm 4 mps 717 mmHg 52%
    02:00 +18°C° 0 mm 4 mps 717 mmHg 57%
    03:00 +18°C° 0 mm 4 mps 717 mmHg 61%
    04:00 +17°C° 0 mm 4 mps 717 mmHg 63%
    05:00 +17°C° 0 mm 4 mps 718 mmHg 64%
    06:00 +17°C° 0 mm 4 mps 718 mmHg 66%
    07:00 +17°C° 0 mm 4 mps 718 mmHg 64%
    08:00 +17°C° 0 mm 4 mps 719 mmHg 63%
    09:00 +18°C° 0 mm 4 mps 719 mmHg 62%
    10:00 +18°C° 0 mm 4 mps 719 mmHg 59%
    11:00 +19°C° 0 mm 4 mps 719 mmHg 56%
    12:00 +19°C° 0 mm 4 mps 719 mmHg 53%
    13:00 +17°C° 0.1 mm 5 mps 719 mmHg 56%
    14:00 +16°C° 0.1 mm 6 mps 718 mmHg 58%
    15:00 +14°C° 0.1 mm 7 mps 718 mmHg 61%
    16:00 +14°C° 0.1 mm 7 mps 718 mmHg 61%
    17:00 +14°C° 0.1 mm 6 mps 719 mmHg 60%
    18:00 +13°C° 0.1 mm 6 mps 719 mmHg 60%
    19:00 +13°C° 0 mm 5 mps 720 mmHg 57%
    20:00 +13°C° 0 mm 5 mps 721 mmHg 54%
    21:00 +12°C° 0 mm 4 mps 722 mmHg 51%
    22:00 +12°C° 0 mm 4 mps 722 mmHg 50%
    23:00 +10°C° 0 mm 5 mps 722 mmHg 49%

    31 July, Monday

    Time Temperature Precipitation Wind Pressure Humidity
    00:00 +9°C° 0 mm 5 mps 722 mmHg 48%
    01:00 +10°C° 0 mm 4 mps 722 mmHg 50%
    02:00 +8°C° 0 mm 4 mps 722 mmHg 51%
    03:00 +8°C° 0 mm 4 mps 722 mmHg 53%
    04:00 +7°C° 0 mm 4 mps 722 mmHg 55%
    05:00 +7°C° 0 mm 4 mps 722 mmHg 57%
    06:00 +7°C° 0 mm 4 mps 722 mmHg 59%
    07:00 +8°C° 0 mm 5 mps 723 mmHg 55%
    08:00 +9°C° 0 mm 5 mps 723 mmHg 51%
    09:00 +10°C° 0 mm 6 mps 724 mmHg 46%
    10:00 +13°C° 0 mm 6 mps 723 mmHg 40%
    11:00 +14°C° 0 mm 6 mps 723 mmHg 34%
    12:00 +16°C° 0 mm 6 mps 722 mmHg 28%
    13:00 +17°C° 0 mm 6 mps 722 mmHg 25%
    14:00 +17°C° 0 mm 6 mps 721 mmHg 23%
    15:00 +19°C° 0 mm 5 mps 721 mmHg 20%
    16:00 +17°C° 0 mm 5 mps 721 mmHg 22%
    17:00 +17°C° 0 mm 4 mps 721 mmHg 23%
    18:00 +15°C° 0 mm 4 mps 721 mmHg 25%
    19:00 +14°C° 0 mm 4 mps 721 mmHg 26%
    20:00 +13°C° 0 mm 4 mps 722 mmHg 28%
    21:00 +13°C° 0 mm 4 mps 722 mmHg 29%
    22:00 +12°C° 0 mm 5 mps 722 mmHg 31%
    23:00 +10°C° 0 mm 5 mps 722 mmHg 32%

    1 August, Tuesday

    Time Temperature Precipitation Wind Pressure Humidity
    00:00 +10°C° 0 mm 5 mps 721 mmHg 33%
    01:00 +9°C° 0 mm 5 mps 721 mmHg 35%
    02:00 +9°C° 0 mm 5 mps 721 mmHg 36%
    03:00 +8°C° 0 mm 4 mps 720 mmHg 38%
    04:00 +8°C° 0 mm 4 mps 720 mmHg 39%
    05:00 +8°C° 0 mm 4 mps 721 mmHg 40%
    06:00 +7°C° 0 mm 4 mps 721 mmHg 41%
    07:00 +9°C° 0 mm 5 mps 721 mmHg 39%
    08:00 +10°C° 0 mm 5 mps 721 mmHg 36%
    09:00 +12°C° 0 mm 5 mps 721 mmHg 34%
    10:00 +14°C° 0 mm 5 mps 721 mmHg 32%
    11:00 +18°C° 0 mm 4 mps 720 mmHg 31%
    12:00 +20°C° 0 mm 4 mps 720 mmHg 30%
    13:00 +21°C° 0 mm 5 mps 719 mmHg 30%
    14:00 +22°C° 0 mm 6 mps 718 mmHg 30%
    15:00 +23°C° 0 mm 7 mps 718 mmHg 30%
    16:00 +22°C° 0 mm 7 mps 718 mmHg 30%
    17:00 +21°C° 0 mm 6 mps 718 mmHg 31%
    18:00 +20°C° 0 mm 5 mps 719 mmHg 31%
    19:00 +16°C° 0 mm 7 mps 719 mmHg 38%
    20:00 +13°C° 0 mm 10 mps 720 mmHg 45%
    21:00 +9°C° 0 mm 12 mps 721 mmHg 52%
    22:00 +9°C° 0 mm 11 mps 721 mmHg 47%
    23:00 +8°C° 0 mm 10 mps 721 mmHg 43%

    2 August, Wednesday

    Time Temperature Precipitation Wind Pressure Humidity
    00:00 +8°C° 0 mm 9 mps 722 mmHg 38%
    01:00 +7°C° 0 mm 8 mps 721 mmHg 41%
    02:00 +8°C° 0 mm 7 mps 721 mmHg 44%
    03:00 +7°C° 0 mm 6 mps 721 mmHg 48%
    04:00 +7°C° 0 mm 6 mps 722 mmHg 52%
    05:00 +5°C° 0 mm 6 mps 722 mmHg 56%
    06:00 +5°C° 0 mm 6 mps 722 mmHg 60%
    07:00 +5°C° 0 mm 7 mps 723 mmHg 57%
    08:00 +6°C° 0 mm 8 mps 723 mmHg 54%
    09:00 +7°C° 0 mm 9 mps 723 mmHg 52%
    10:00 +8°C° 0 mm 9 mps 723 mmHg 46%
    11:00 +10°C° 0 mm 9 mps 723 mmHg 41%
    12:00 +12°C° 0 mm 9 mps 723 mmHg 35%
    13:00 +12°C° 0 mm 9 mps 722 mmHg 32%
    14:00 +13°C° 0 mm 8 mps 722 mmHg 29%
    15:00 +13°C° 0 mm 8 mps 721 mmHg 26%
    16:00 +12°C° 0 mm 8 mps 722 mmHg 29%
    17:00 +11°C° 0 mm 7 mps 722 mmHg 31%
    18:00 +10°C° 0 mm 6 mps 722 mmHg 34%
    19:00 +10°C° 0 mm 6 mps 723 mmHg 37%
    20:00 +9°C° 0 mm 6 mps 723 mmHg 41%
    21:00 +8°C° 0 mm 6 mps 724 mmHg 44%
    22:00 +8°C° 0 mm 6 mps 724 mmHg 47%
    23:00 +8°C° 0 mm 6 mps 724 mmHg 50%
    Show more